Air Quality Table

TIMESTAMP NO2 SO2 O3 PM10 PM2.5 TEMP HUM AIRPRES WS WD NO
2021-11-30 01:00 0.84 µg/m3 2.79 µg/m3 75.96 µg/m3 19.17 µg/m3 13.35 µg/m3 12.29 °C 70.11 % 1,007.81 mbar 6.18 m/s 299.75 Deg 0.11 µg/m3
2021-11-30 00:00 1.1 µg/m3 2.71 µg/m3 79.73 µg/m3 22.73 µg/m3 21.39 µg/m3 11.58 °C 70.92 % 1,007.55 mbar 6.23 m/s 291.52 Deg 0.16 µg/m3
2021-11-29 23:00 1.93 µg/m3 2.77 µg/m3 79.38 µg/m3 23.87 µg/m3 19.91 µg/m3 10.83 °C 77.94 % 1,007.34 mbar 6.43 m/s 304.02 Deg 0.31 µg/m3
2021-11-29 22:00 2.49 µg/m3 2.56 µg/m3 78.74 µg/m3 36.99 µg/m3 18.87 µg/m3 11.43 °C 76.72 % 1,006.39 mbar 6.43 m/s 298.42 Deg 0.37 µg/m3
2021-11-29 21:00 4.05 µg/m3 2.94 µg/m3 76.87 µg/m3 20.09 µg/m3 9.59 µg/m3 12.01 °C 76.04 % 1,005.31 mbar 5.98 m/s 312.52 Deg 0.63 µg/m3
2021-11-29 20:00 4.03 µg/m3 2.68 µg/m3 77.64 µg/m3 19.45 µg/m3 8.86 µg/m3 14.08 °C 54.68 % 1,004.04 mbar 7.99 m/s 294.1 Deg 0.72 µg/m3
2021-11-29 19:00 5.01 µg/m3 2.81 µg/m3 75.93 µg/m3 19.68 µg/m3 14.18 µg/m3 14.5 °C 53.5 % 1,002.99 mbar 8.25 m/s 291.88 Deg 0.83 µg/m3
2021-11-29 18:00 6.37 µg/m3 2.77 µg/m3 71.17 µg/m3 27.29 µg/m3 7.28 µg/m3 14.46 °C 61.62 % 1,002.04 mbar 7.83 m/s 287.87 Deg 1.19 µg/m3
2021-11-29 17:00 8.76 µg/m3 2.88 µg/m3 67.58 µg/m3 28.87 µg/m3 4.47 µg/m3 12.65 °C 78.62 % 1,001.91 mbar 7.03 m/s 280.85 Deg 1.38 µg/m3
2021-11-29 16:00 7.84 µg/m3 2.8 µg/m3 68.55 µg/m3 21.09 µg/m3 5.33 µg/m3 14.53 °C 62.9 % 1,000.79 mbar 8.13 m/s 280.62 Deg 1.86 µg/m3
2021-11-29 15:00 6.83 µg/m3 2.82 µg/m3 69.93 µg/m3 18.09 µg/m3 5.45 µg/m3 15.38 °C 56.32 % 1,000.30 mbar 7.91 m/s 260.97 Deg 1.79 µg/m3
2021-11-29 14:00 4.46 µg/m3 2.82 µg/m3 70.92 µg/m3 19.32 µg/m3 6.55 µg/m3 15.31 °C 58.04 % 1,000.34 mbar 7.86 m/s 261.18 Deg 1.27 µg/m3
2021-11-29 13:00 5.43 µg/m3 2.96 µg/m3 70.11 µg/m3 20.61 µg/m3 5.67 µg/m3 15.44 °C 55.66 % 1,001.11 mbar 7.41 m/s 264.47 Deg 1.73 µg/m3
2021-11-29 12:00 5.84 µg/m3 2.59 µg/m3 68.66 µg/m3 21.78 µg/m3 5.81 µg/m3 15.62 °C 55.23 % 1,001.65 mbar 7.12 m/s 264.28 Deg 1.74 µg/m3
2021-11-29 11:00 6.47 µg/m3 2.87 µg/m3 67.44 µg/m3 17.17 µg/m3 4.97 µg/m3 15.46 °C 53.19 % 1,001.94 mbar 7.19 m/s 267.15 Deg 1.81 µg/m3
2021-11-29 10:00 8.08 µg/m3 2.68 µg/m3 65.6 µg/m3 19.43 µg/m3 6.48 µg/m3 14.86 °C 52.55 % 1,002.20 mbar 6.26 m/s 270.13 Deg 2.29 µg/m3
2021-11-29 09:00 9.56 µg/m3 2.7 µg/m3 64.59 µg/m3 15.72 µg/m3 9.34 µg/m3 14.52 °C 53.98 % 1,002.13 mbar 5.65 m/s 271.93 Deg 2.18 µg/m3
2021-11-29 08:00 12.38 µg/m3 2.91 µg/m3 62.39 µg/m3 8.25 µg/m3 7.16 µg/m3 14.15 °C 54.91 % 1,001.67 mbar 6.01 m/s 272.07 Deg 2.56 µg/m3
2021-11-29 07:00 9.03 µg/m3 2.48 µg/m3 64.4 µg/m3 6.81 µg/m3 5.45 µg/m3 14.06 °C 52.23 % 1,001.01 mbar 5.86 m/s 283 Deg 1.49 µg/m3
2021-11-29 06:00 3.82 µg/m3 2.54 µg/m3 67.38 µg/m3 8.59 µg/m3 6.03 µg/m3 14.23 °C 55.27 % 1,000.50 mbar 5.81 m/s 276.82 Deg 0.56 µg/m3
2021-11-29 05:00 1.48 µg/m3 2.5 µg/m3 69.96 µg/m3 8.95 µg/m3 5.33 µg/m3 13.91 °C 60.95 % 1,000.31 mbar 5.06 m/s 285.27 Deg 0.18 µg/m3
2021-11-29 04:00 1.2 µg/m3 2.53 µg/m3 70.05 µg/m3 7.58 µg/m3 7.54 µg/m3 13.78 °C 65.2 % 999.87 mbar 5.5 m/s 295.4 Deg 0.18 µg/m3
2021-11-29 03:00 0.98 µg/m3 2.86 µg/m3 72.42 µg/m3 8.28 µg/m3 9.81 µg/m3 14.18 °C 65.94 % 999.67 mbar 5.3 m/s 292.32 Deg 0.08 µg/m3
2021-11-29 02:00 1.35 µg/m3 2.33 µg/m3 71.85 µg/m3 11.27 µg/m3 8.37 µg/m3 13.44 °C 77.6 % 999.58 mbar 3.81 m/s 298.77 Deg 0.11 µg/m3
2021-11-29 01:00 1.91 µg/m3 2.45 µg/m3 70.14 µg/m3 14.05 µg/m3 5.35 µg/m3 13.7 °C 82.92 % 999.74 mbar 3.7 m/s 303.18 Deg 0.17 µg/m3
2021-11-29 00:00 3.65 µg/m3 2.27 µg/m3 70.42 µg/m3 18.73 µg/m3 6.04 µg/m3 14.06 °C 79.39 % 999.66 mbar 3.18 m/s 299.65 Deg 0.52 µg/m3
2021-11-28 23:00 4.68 µg/m3 2.71 µg/m3 68.9 µg/m3 16.97 µg/m3 5.04 µg/m3 14.5 °C 75.3 % 999.57 mbar 2.72 m/s 291.8 Deg 0.27 µg/m3
2021-11-28 22:00 5.96 µg/m3 2.29 µg/m3 71.43 µg/m3 10.79 µg/m3 5.4 µg/m3 14.92 °C 73.42 % 999.53 mbar 3.34 m/s 298.95 Deg 0.59 µg/m3
2021-11-28 21:00 6.72 µg/m3 2.46 µg/m3 73.53 µg/m3 7.77 µg/m3 5.89 µg/m3 15.33 °C 71.99 % 999.01 mbar 2.84 m/s 281.72 Deg 0.49 µg/m3
2021-11-28 20:00 8.38 µg/m3 2.45 µg/m3 73.36 µg/m3 8.15 µg/m3 5.81 µg/m3 15.41 °C 72.24 % 998.71 mbar 3.17 m/s 294.92 Deg 0.96 µg/m3
2021-11-28 19:00 8.53 µg/m3 2.24 µg/m3 72.86 µg/m3 8.71 µg/m3 5.92 µg/m3 15.05 °C 83.33 % 998.26 mbar 3.75 m/s 294.7 Deg 1.18 µg/m3
2021-11-28 18:00 6.89 µg/m3 2.34 µg/m3 72.56 µg/m3 7.58 µg/m3 5.9 µg/m3 14.99 °C 92.06 % 997.53 mbar 4.42 m/s 288.88 Deg 0.72 µg/m3
2021-11-28 17:00 5.36 µg/m3 2.33 µg/m3 72 µg/m3 10.49 µg/m3 4.64 µg/m3 15.52 °C 93.49 % 997.10 mbar 3.86 m/s 275.25 Deg 0.57 µg/m3
2021-11-28 16:00 6.1 µg/m3 2.36 µg/m3 71.27 µg/m3 11.44 µg/m3 5.02 µg/m3 16.88 °C 81.81 % 996.73 mbar 3.69 m/s 256.22 Deg 0.55 µg/m3
2021-11-28 15:00 6.39 µg/m3 2.21 µg/m3 70.85 µg/m3 11 µg/m3 5.9 µg/m3 16.61 °C 82.51 % 996.79 mbar 3.45 m/s 261.13 Deg 0.47 µg/m3
2021-11-28 14:00 3.56 µg/m3 2.34 µg/m3 73.98 µg/m3 11.82 µg/m3 6.33 µg/m3 16.34 °C 85.38 % 997.27 mbar 3.62 m/s 238.58 Deg 0.45 µg/m3
2021-11-28 13:00 1.5 µg/m3 2.19 µg/m3 77.12 µg/m3 18.16 µg/m3 5.84 µg/m3 15.87 °C 88.18 % 997.92 mbar 5.11 m/s 211.33 Deg 0.18 µg/m3
2021-11-28 12:00 3.37 µg/m3 2.33 µg/m3 76.98 µg/m3 17.79 µg/m3 8.68 µg/m3 14.96 °C 98.5 % 1,000.11 mbar 4.62 m/s 206.02 Deg 0.2 µg/m3
2021-11-28 11:00 4.5 µg/m3 2.31 µg/m3 76.78 µg/m3 17.52 µg/m3 14.09 µg/m3 14.11 °C 99.6 % 1,001.00 mbar 4.19 m/s 208.02 Deg 0.28 µg/m3
2021-11-28 10:00 5.09 µg/m3 2.41 µg/m3 77.4 µg/m3 22.3 µg/m3 24.54 µg/m3 13.36 °C 98.53 % 1,001.33 mbar 3.7 m/s 231.83 Deg 0.68 µg/m3
2021-11-28 09:00 5.12 µg/m3 2.49 µg/m3 78.19 µg/m3 20.18 µg/m3 21.42 µg/m3 13.49 °C 94.28 % 1,001.47 mbar 3.45 m/s 242.95 Deg 0.5 µg/m3
2021-11-28 08:00 5.84 µg/m3 2.46 µg/m3 79.31 µg/m3 24.5 µg/m3 15.29 µg/m3 13.77 °C 87.74 % 1,000.90 mbar 3.66 m/s 255.52 Deg 0.36 µg/m3
2021-11-28 07:00 3.18 µg/m3 2.68 µg/m3 81.51 µg/m3 19.95 µg/m3 11.43 µg/m3 13.85 °C 86.16 % 1,001.06 mbar 4.47 m/s 262.8 Deg 0.25 µg/m3
2021-11-28 06:00 2.22 µg/m3 2.54 µg/m3 83.4 µg/m3 27.01 µg/m3 16.13 µg/m3 14.82 °C 74.56 % 1,000.58 mbar 4.55 m/s 267.35 Deg 0.17 µg/m3
2021-11-28 05:00 1.17 µg/m3 2.42 µg/m3 83.68 µg/m3 28.83 µg/m3 13.9 µg/m3 17.26 °C 64.11 % 1,000.24 mbar 4.9 m/s 263.35 Deg 0.1 µg/m3
2021-11-28 04:00 1.64 µg/m3 2.45 µg/m3 82.29 µg/m3 27.07 µg/m3 19.36 µg/m3 17.93 °C 64.71 % 1,000.07 mbar 4.39 m/s 252.15 Deg 0.12 µg/m3
2021-11-28 03:00 1.32 µg/m3 2.57 µg/m3 84.66 µg/m3 28.43 µg/m3 21.15 µg/m3 17.85 °C 59.89 % 1,000.20 mbar 4.49 m/s 258.82 Deg 0.1 µg/m3

It is to be noted that the data is provisional and subject to quality assurance procedures. For validated data kindly refer your request to contact.air@era.org.mt